Probability
23 22 21 19 19 21 24 23 19 16 14 12 9 9 6 3 2 1 1 1 1 2 3 2 1 0 0 0 0 0 0 0 0 0 0 0 0 0 0 0 0 0 0
21 21 21 20 18 19 20 20 18 16 14 11 9 7 5 2 1 0 0 0 0 1 1 1 0 0 0 0 0 0 0 0 0 0 0 0 0 0 0 0 0 0 0
19 18 20 20 17 15 15 16 16 15 14 12 9 6 3 1 0 0 0 0 0 0 0 0 0 0 0 0 0 0 0 0 0 0 0 0 0 0 0 0 0 0 0
16 15 15 15 14 13 13 14 14 13 12 11 9 6 3 2 1 0 0 0 0 0 0 0 0 0 0 0 0 0 0 0 0 0 0 0 0 0 0 0 0 0 0
10 10 11 12 12 12 13 13 12 11 10 9 9 7 4 2 1 0 0 0 0 0 0 0 0 0 0 0 0 0 0 0 0 0 0 0 0 0 0 0 0 0 0
3 5 8 10 12 12 12 11 10 9 8 7 7 6 4 2 1 0 0 0 0 0 0 0 0 0 0 0 0 0 0 0 0 0 0 0 0 0 0 0 0 0 0
0 1 4 7 9 10 10 8 7 6 5 5 5 3 2 1 0 0 0 0 0 0 0 0 0 0 0 0 0 0 0 0 0 0 0 0 0 0 0 0 0 0 0
1 0 1 2 3 4 4 3 3 3 3 3 2 1 1 0 0 0 0 0 0 0 0 0 0 0 0 0 0 0 0 0 0 0 0 0 0 0 0 0 0 0 0
1 0 0 0 0 0 0 0 0 1 1 1 1 0 0 0 0 0 0 0 0 0 0 0 0 0 0 0 0 0 0 0 0 0 0 0 0 0 0 0 0 0 0
1 0 0 0 0 0 0 0 0 0 1 1 0 0 0 0 0 0 0 0 0 0 0 0 0 0 0 0 0 0 0 0 0 0 0 0 0 0 0 0 0 0 0
0 0 0 0 0 0 0 0 0 0 1 0 0 0 0 0 0 0 0 0 0 0 0 0 0 0 0 0 0 0 0 0 0 0 0 0 0 0 0 0 0 0 0
0 0 0 0 0 0 0 0 0 0 0 0 0 0 0 0 0 0 0 0 0 0 0 0 0 0 0 0 0 0 0 0 0 0 0 0 0 0 0 0 0 0 0
0 0 0 0 0 0 0 0 0 0 0 0 0 0 0 0 0 0 0 0 0 0 0 0 0 0 0 0 0 0 0 0 0 0 0 0 0 0 0 0 0 0 0
0 0 0 0 0 0 0 0 0 0 0 0 0 0 0 0 0 0 0 0 0 0 0 0 0 0 0 0 0 0 0 0 0 0 0 0 0 0 0 0 0 0 0
0 0 0 0 0 0 0 0 0 0 0 0 0 0 0 0 0 0 0 0 0 0 0 0 0 0 0 0 0 0 0 0 0 0 0 0 0 0 0 0 0 0 0
0 0 0 0 0 0 0 0 0 0 0 0 0 0 0 0 0 0 0 0 0 0 0 0 0 0 0 0 0 0 0 0 0 0 0 0 0 0 0 0 0 0 0
0 0 0 0 0 0 0 0 0 0 0 0 0 0 0 0 0 0 0 0 0 0 0 0 0 0 0 0 0 0 0 0 0 0 0 0 0 0 0 0 0 0 0
0 0 0 0 0 0 0 0 0 0 0 0 0 0 0 0 0 0 0 0 0 0 0 0 0 0 0 0 0 0 0 0 0 0 0 0 0 0 0 0 0 0 0
0 0 0 0 0 0 0 0 0 0 0 0 0 0 0 0 0 0 0 0 0 0 0 0 0 0 0 0 0 0 0 0 0 0 0 0 0 0 0 0 0 0 0
0 0 0 0 0 0 0 0 0 0 0 0 0 0 0 0 0 0 0 0 0 0 0 0 0 0 0 0 0 0 0 0 0 0 0 0 0 0 0 0 0 0 0
0 0 0 0 0 0 0 0 0 0 0 0 0 0 0 0 0 0 0 0 0 0 0 0 0 0 0 0 0 0 0 0 0 0 0 0 0 0 0 0 0 0 0
0 0 0 0 0 0 0 0 0 0 0 0 0 0 0 0 0 0 0 0 0 0 0 0 0 0 0 0 0 0 0 0 0 0 0 0 0 0 0 0 0 0 0
0 0 0 0 0 0 0 0 0 0 0 0 0 0 0 0 0 0 0 0 0 0 0 0 0 0 0 0 0 0 0 0 0 0 0 0 0 0 0 0 0 0 0
0 0 0 0 0 0 0 0 0 0 0 0 0 0 0 0 0 0 0 0 0 0 0 0 0 0 0 0 0 0 0 0 0 0 0 0 0 0 0 0 0 0 0
0 0 0 0 0 0 0 0 0 0 0 0 0 0 0 0 0 0 0 0 0 0 0 0 0 0 0 0 0 0 0 0 0 0 0 0 0 0 0 0 0 0 0
0 0 0 0 0 0 0 0 0 0 0 0 0 0 0 0 0 0 0 0 0 0 0 0 0 0 0 0 0 0 0 0 0 0 0 0 0 0 0 0 0 0 0
Wind_Speed
4 5 4 4 4 4 4 4 4 3 3 3 3 3 3 4 4 4 5 6 5 5 5 3 3 3 3 3 4 3 4 3 1 3 3 4 5 6 5 4 5 6 6
5 5 4 5 4 3 3 4 4 3 4 2 3 3 4 4 4 5 6 7 6 6 5 5 4 4 4 4 3 2 3 3 2 1 2 1 2 4 5 5 6 6 6
5 5 5 5 5 4 3 2 4 4 5 5 5 6 5 4 4 5 5 6 7 7 7 7 6 6 5 4 4 3 4 3 3 3 1 2 2 1 3 5 6 6 6
6 6 6 6 6 6 5 4 4 5 6 5 6 6 6 6 5 5 5 7 8 8 8 8 8 7 6 6 5 5 3 3 2 3 4 3 2 3 2 2 4 6 7
6 7 7 7 7 6 6 5 5 5 6 5 6 7 8 7 6 6 9 8 8 8 9 8 8 8 7 7 8 7 7 5 4 3 2 3 4 4 3 2 2 3 4
7 7 8 7 7 7 7 6 6 6 6 7 7 9 12 11 10 8 8 7 6 7 9 9 9 8 7 8 8 8 9 7 8 6 5 3 3 2 3 2 1 1 2
6 7 8 8 8 8 7 7 8 9 8 9 10 10 10 11 11 9 8 8 7 6 7 8 8 7 8 8 8 9 9 8 8 7 5 5 4 2 2 2 2 2 2
6 7 7 7 8 8 8 8 10 9 9 10 11 10 10 8 8 9 8 8 7 7 7 8 9 9 9 9 8 8 8 7 8 8 6 5 5 4 3 2 2 2 2
7 7 7 7 8 9 9 8 10 10 10 10 11 11 11 11 11 10 9 8 7 8 9 9 9 9 9 8 8 7 7 7 7 7 7 5 4 4 4 3 2 2 1
7 7 7 7 8 9 9 10 11 11 10 10 10 10 12 12 10 10 10 10 9 8 9 9 9 9 8 8 7 7 6 7 6 5 6 5 4 4 4 4 3 2 2
7 7 7 7 8 9 9 10 11 11 11 12 11 12 11 10 10 10 9 9 9 9 9 8 8 8 8 7 7 7 7 7 6 5 6 5 4 4 3 3 3 2 1
7 8 8 8 9 9 10 10 10 11 11 11 11 11 10 10 10 9 9 8 9 8 8 8 8 8 7 6 7 6 6 6 6 5 5 4 3 4 3 2 2 2 1
9 8 8 8 8 9 9 10 10 10 10 10 11 11 10 9 9 8 8 8 8 8 8 8 8 7 6 6 6 6 5 5 4 3 3 2 3 3 2 1 1 1 1
9 9 8 8 8 8 9 9 9 9 10 10 10 10 8 7 7 7 7 7 7 7 7 7 6 6 6 6 5 5 5 4 4 3 2 1 1 1 1 1 1 1 1
10 9 9 8 8 8 8 8 9 8 9 9 9 8 7 7 7 7 6 6 6 6 5 6 6 5 4 4 4 4 4 4 4 4 3 2 1 1 1 2 2 2 1
10 10 9 9 8 8 8 8 8 7 7 8 7 6 6 7 6 6 5 6 5 5 5 5 5 5 4 6 6 4 4 3 4 4 4 3 3 4 5 6 5 3 3
10 9 8 8 7 7 7 7 6 6 6 6 6 5 6 6 5 5 5 5 4 4 4 4 4 4 5 7 7 6 3 3 3 2 3 3 3 4 4 6 7 5 5
10 9 8 8 7 6 6 6 6 6 6 5 5 4 4 4 4 4 4 3 2 3 2 2 3 3 4 7 7 6 4 3 3 2 2 3 4 4 5 6 6 6 4
9 8 8 7 7 7 6 7 6 5 5 4 4 3 4 4 3 3 2 2 2 2 2 2 2 2 4 6 6 5 3 3 4 4 4 4 4 7 7 5 6 7 5
9 8 8 8 7 5 6 7 5 5 4 3 3 3 3 3 3 2 2 1 1 2 2 2 2 2 2 5 7 5 3 4 4 5 4 5 6 9 7 3 3 5 6
9 8 8 7 6 5 6 6 5 4 3 3 4 3 3 3 3 2 2 2 2 3 3 3 2 2 2 4 7 7 3 3 4 4 4 5 10 10 7 3 3 5 6
9 8 7 6 4 5 6 6 4 3 3 4 4 3 3 3 3 3 3 3 3 3 3 2 2 2 3 3 5 7 6 4 3 4 4 6 10 8 6 4 4 5 3
8 6 8 6 4 4 5 6 3 3 4 4 4 3 3 3 3 3 3 3 3 2 2 1 1 2 2 3 6 7 7 7 3 3 7 8 7 6 5 7 8 6 4
7 6 7 7 4 4 4 4 3 3 4 3 3 2 3 3 3 3 2 2 2 2 1 1 1 1 2 3 4 4 5 5 4 3 5 5 6 6 6 6 6 5 4
6 6 7 6 5 4 3 3 3 4 4 3 2 2 2 2 2 2 1 1 1 2 2 1 1 0 2 3 5 5 4 4 3 3 3 4 5 6 6 5 5 5 5
6 6 6 5 4 4 3 2 2 3 3 2 1 1 1 1 1 1 1 1 0 1 2 3 3 2 4 7 7 7 6 5 3 3 3 3 4 4 4 5 5 5 6
Wind_Direction
68 60 57 67 77 84 102 112 105 108 109 121 139 128 117 108 95 79 79 80 80 86 90 92 84 86 94 101 107 108 96 75 72 104 86 57 51 52 39 36 41 40 40
59 54 53 58 63 74 93 103 101 114 116 132 138 121 115 103 92 81 68 72 82 84 91 91 86 81 91 86 84 102 106 64 27 105 127 112 56 39 35 37 42 38 40
62 53 54 56 54 46 39 70 86 97 109 113 111 114 111 104 95 84 70 59 71 78 82 85 86 77 77 78 67 72 102 111 55 39 113 155 167 109 38 38 40 37 40
53 50 47 46 44 37 30 34 64 82 88 103 122 132 122 112 99 93 85 69 64 71 76 79 81 79 76 75 65 55 64 100 101 61 43 52 104 138 121 36 30 38 40
57 54 48 45 45 43 38 32 47 73 96 105 118 119 105 99 99 95 88 78 68 66 71 74 77 76 73 72 71 67 63 64 74 71 60 56 51 54 110 103 26 32 28
62 56 52 52 50 49 51 46 53 56 65 84 100 115 118 117 113 104 97 85 77 70 68 75 76 77 77 75 74 73 71 72 73 68 60 62 65 55 79 107 80 41 10
68 58 50 49 49 52 57 61 64 63 65 76 82 92 104 109 108 106 101 96 86 78 70 76 76 76 77 77 77 76 72 69 72 72 68 62 55 50 70 94 93 55 4
76 66 56 55 55 55 59 66 70 68 70 78 82 85 90 92 93 92 95 92 89 84 79 78 77 74 74 76 75 75 73 71 71 70 66 64 50 46 52 83 112 85 28
81 73 63 60 62 60 62 69 75 74 72 76 82 83 86 89 91 90 87 87 86 86 78 76 75 72 71 73 76 76 74 74 71 70 68 64 49 47 50 56 71 115 93
89 79 71 67 67 67 68 70 75 78 78 80 82 85 84 87 89 88 86 84 82 81 81 76 74 71 68 70 75 76 73 76 70 72 72 65 55 51 49 55 56 67 122
99 89 81 74 73 73 72 74 75 78 78 82 84 85 84 85 87 87 86 86 84 80 78 77 75 71 67 67 74 74 72 73 66 63 72 67 63 58 47 50 54 52 68
102 94 90 85 80 79 78 78 79 79 80 83 85 84 84 84 84 85 85 85 83 79 79 76 72 69 66 63 69 73 69 71 68 61 66 63 66 57 43 42 40 34 33
105 97 89 86 85 83 83 81 80 83 83 85 86 84 83 84 85 85 83 83 83 78 74 73 71 66 64 62 62 68 69 67 63 60 65 62 66 51 30 21 11 352 3
110 105 97 90 87 85 86 86 82 83 85 85 85 84 83 85 86 85 83 82 84 82 77 74 71 65 62 61 62 66 64 58 52 49 52 53 72 44 348 342 331 316 324
117 113 108 102 97 93 88 87 87 86 88 88 85 84 85 84 82 80 81 82 82 84 80 76 66 58 57 53 63 62 61 52 41 33 24 5 20 24 351 332 308 295 299
122 118 115 111 106 102 98 92 91 90 92 93 92 90 87 84 82 83 83 82 80 77 74 70 64 52 45 43 60 71 58 45 38 21 2 351 10 360 355 348 339 304 272
124 122 119 114 110 106 105 101 99 95 93 94 94 93 94 91 89 92 88 85 83 83 79 69 61 48 31 41 49 59 62 45 27 11 352 347 351 353 339 333 333 323 293
128 122 117 113 107 105 104 103 101 99 96 93 95 98 99 96 92 90 88 83 81 85 84 76 60 45 30 40 44 46 46 34 13 352 333 329 331 339 338 328 327 322 309
125 122 119 115 111 110 112 109 104 103 102 103 107 111 111 106 99 93 87 83 90 90 91 88 72 47 16 25 35 40 21 15 1 353 348 335 326 324 334 329 326 327 324
122 122 117 111 109 113 116 112 111 110 112 118 115 109 109 110 105 93 78 77 99 102 101 86 68 54 18 15 29 33 18 6 350 342 343 344 336 328 330 316 313 319 319
120 119 116 114 117 119 116 115 113 115 117 107 101 96 96 101 98 85 67 78 86 87 80 75 55 43 21 16 25 27 22 353 335 335 335 332 334 335 337 318 272 280 296
119 118 115 110 110 119 120 118 121 120 105 99 91 82 75 78 89 89 74 70 87 88 77 67 44 21 11 14 8 9 5 350 323 319 320 318 330 346 5 11 356 343 344
120 116 119 113 106 119 127 126 133 117 104 92 85 79 76 72 83 94 89 73 74 88 84 73 43 358 347 345 353 354 350 347 334 305 312 328 352 13 25 27 25 23 18
122 122 120 119 115 115 119 126 127 119 110 97 90 94 91 80 68 72 86 97 99 99 98 87 42 346 331 334 343 343 342 344 347 339 339 359 26 38 28 19 18 19 11
121 122 125 127 128 123 116 121 127 124 113 103 94 90 91 103 93 76 82 121 173 182 160 171 189 246 315 310 322 327 328 329 329 340 11 25 21 19 14 8 5 3 5
124 123 126 130 134 134 133 131 124 129 127 117 115 121 133 133 130 113 47 24 189 201 196 196 199 243 263 293 317 333 345 355 18 56 44 29 20 14 4 356 350 352 357